Location: Houhaj�rvi
(61.2833°N, 23.0000°E)
Time: 15:33:57
(UTC+00:00)

USA 238 - Pass Details

Date: 27 February 2020
Orbit: 1017 x 1195 km, 63.4° (Epoch: 05 April)

Event Time Altitude Azimuth Distance (km) Brightness Sun altitude
Rises 18:06:30 0° 302° (WNW) 3,911 8.1 -17.5°
Reaches altitude 10° 18:09:12 10° 298° (WNW) 2,977 7.2 -17.8°
Maximum altitude 18:16:00 51° 225° (SW) 1,416 4.5 -18.6°
Enters shadow 18:21:57 15° 156° (SSE) 2,721 5.4 -19.3°
